[[{"header":{"parameterUnit":"m.s-1","parameterCategory":1,"la1":30.2991,"la2":30.254,"lo1":-89.0895,"lo2":-89.0444,"dy":0.0017,"dx":0.0017,"nx":28,"ny":28,"refTime":"2023-09-10T09:00:00:Z","depth":0,"parameterNumber":2,"parameterNumberName":"U-component_of_WINDS"},"data":[0,0,0,0,0,0,0,0,0,0,0,0,0,0,0,0,0,0,0,0,0,0,0,0,0,0,0,0,0,0,0,0,0,0,0,0,0,0,0,0,0,0,0,0,0,0,0,0,0,0,0,0,0,0,0,0,0,0,1.078,1.0781,0,1.0873,1.0874,1.0875,1.0933,1.0933,1.0933,1.0934,1.1027,1.1029,1.1031,0,0,0,0,0,0,0,0,0,0,0,0,0,1.0649,1.0651,1.078,1.0781,1.0782,1.0873,1.0874,1.0875,1.0933,1.0933,1.0933,1.0934,1.1026,1.1029,1.1032,0,0,0,0,0,0,0,0,0,0,0,0,0,1.072,1.0652,1.078,1.0822,1.0826,1.0873,1.0874,1.0876,1.0933,1.0933,1.0934,1.0934,1.1025,1.1029,1.1032,1.1043,0,0,1.1042,1.1043,0,0,0,0,0,0,0,0,1.0716,1.0725,1.0814,1.0819,1.0824,1.0892,1.0862,1.0932,1.0932,1.0892,1.0934,1.0934,1.0982,1.0988,1.1005,1.1047,1.1051,1.1042,1.1044,1.1046,1.1047,0,0,0,0,0,0,0,1.0711,1.0721,1.0817,1.0816,1.0822,1.0835,1.0846,1.0876,1.0933,1.0896,1.09,1.0911,1.0984,1.1001,1.1007,1.1053,1.1042,1.1045,1.1047,1.1048,1.1107,1.1107,0,0,0,0,0,0,1.07,1.0717,1.0814,1.0819,1.077,1.0837,1.0849,1.087,1.0933,1.0943,1.091,1.0913,1.0996,1.1004,1.1011,1.1027,1.1046,1.1049,1.1051,1.1107,1.1107,1.1106,0,0,0,0,0,0,1.0697,1.0708,1.081,1.0769,1.0783,1.0839,1.0861,1.0871,1.0889,1.0944,1.0954,1.0917,1.0996,1.1006,1.1034,1.1031,1.105,1.1053,1.1108,1.1107,1.1107,1.1059,0,0,0,0,0,0,1.0693,1.0706,1.0712,1.0769,1.0785,1.0832,1.0861,1.0873,1.0894,1.0899,1.0953,1.0963,1.0997,1.1029,1.1037,1.1036,1.1056,1.1108,1.1108,1.1107,1.1061,1.1057,1.1053,0,0,0,0,0,1.0688,1.0695,1.0712,1.0723,1.0793,1.0832,1.0841,1.0882,1.0894,1.0899,1.0934,1.0961,1.103,1.1031,1.1041,1.1041,1.1109,1.1108,1.1107,1.1063,1.1058,1.1053,0,0,0,0,0,0,1.0635,1.0703,1.0723,1.0749,1.0784,1.0842,1.085,1.0875,1.0908,1.0911,1.0959,1.0971,1.0993,1.102,1.102,1.1054,1.1072,1.1073,1.1035,1.1031,1.1027,1.102,1.1059,0,0,0,0,0,1.0627,1.0653,1.0711,1.0728,1.0745,1.0794,1.0812,1.084,1.0879,1.0894,1.0932,1.0967,1.0997,1.1016,1.1046,1.1066,1.1077,1.107,1.1066,1.1062,1.1062,1.1073,1.107,1.1103,1.1103,1.1103,0,0,1.0609,1.0649,1.0663,1.0718,1.0749,1.0774,1.0806,1.0832,1.0851,1.0898,1.0926,1.0955,1.0998,1.1021,1.1033,1.1044,1.1055,1.1061,1.1058,1.106,1.1071,1.1068,1.1065,1.1103,1.1103,1.1103,0,0,1.059,1.0624,1.0641,1.0671,1.0718,1.075,1.0754,1.0808,1.0829,1.0858,1.0894,1.0916,1.0967,1.0996,1.1017,1.1007,1.1032,1.1016,1.0995,1.1005,1.1002,1.1,1.0995,1.0993,1.1016,1.1016,1.1016,0,1.0562,1.0602,1.0646,1.067,1.0692,1.0736,1.0753,1.078,1.0834,1.0848,1.086,1.0923,1.0955,1.0985,1.0983,1.0999,1.1004,1.101,1.0999,1.0997,1.0996,1.0992,1.099,1.1014,1.1014,1.1014,1.1014,0,1.0565,1.0592,1.06,1.0651,1.0675,1.0695,1.0741,1.0759,1.0785,1.0816,1.0844,1.0885,1.0923,1.0933,1.0958,1.0966,1.0971,1.099,1.1009,1.0989,1.0986,1.0985,1.101,1.1011,1.1012,1.1012,0,0,1.0515,1.059,1.0592,1.0615,1.0669,1.069,1.0712,1.075,1.0764,1.0799,1.0817,1.0859,1.0877,1.0901,1.093,1.0938,1.0926,1.0957,1.0958,1.0948,1.0935,1.0919,1.0917,1.0944,1.0944,1.0944,1.0931,0,1.0503,1.0544,1.0584,1.0611,1.0635,1.0677,1.0696,1.073,1.0759,1.0784,1.0816,1.0844,1.0866,1.0881,1.0891,1.0925,1.0924,1.0927,1.096,1.096,1.0946,1.0915,1.0899,1.0885,1.093,1.093,1.093,0,1.0494,1.0528,1.0557,1.0607,1.0619,1.0635,1.0672,1.0696,1.0735,1.0756,1.0782,1.0813,1.0836,1.0853,1.0885,1.0886,1.0902,1.0921,1.0921,1.0925,1.0943,1.0917,1.0882,1.0879,1.0929,1.0929,1.0929,0,1.0453,1.0505,1.0529,1.0548,1.0607,1.0617,1.0643,1.0683,1.0703,1.0735,1.0748,1.0783,1.0802,1.0827,1.0866,1.0875,1.0893,1.0914,1.091,1.0909,1.0911,1.091,1.0877,1.0923,1.0923,1.0923,1.0923,0,1.0435,1.045,1.0511,1.0526,1.0544,1.0589,1.0606,1.0634,1.0669,1.0689,1.0728,1.0745,1.0796,1.082,1.085,1.0871,1.088,1.0896,1.0903,1.0892,1.0889,1.0902,1.0903,1.0923,1.0923,1.0923,1.0923,0,1.0392,1.0433,1.0461,1.0516,1.0529,1.054,1.0586,1.0601,1.0632,1.0657,1.0665,1.0714,1.0743,1.0785,1.0827,1.0848,1.0863,1.0877,1.085,1.0854,1.0847,1.0846,1.0819,1.0817,1.0866,1.0865,1.0865,0,1.0376,1.0389,1.0444,1.0461,1.0485,1.051,1.0531,1.0575,1.0595,1.064,1.0649,1.0681,1.071,1.0754,1.0793,1.0825,1.0839,1.0827,1.0844,1.0831,1.0836,1.0834,1.0835,1.0822,1.0822,1.0821,1.082,0,1.0344,1.0364,1.0392,1.0427,1.045,1.048,1.0511,1.0522,1.0573,1.0593,1.0624,1.0645,1.0688,1.0719,1.0756,1.0782,1.0809,1.0815,1.0815,1.0803,1.0786,1.0793,1.0837,1.0815,1.0816,1.0816,1.0816,1.0817,1.0314,1.0326,1.0367,1.0397,1.0425,1.0453,1.0469,1.0502,1.0529,1.0567,1.0592,1.062,1.0658,1.0711,1.0735,1.0757,1.0769,1.077,1.077,1.0769,1.0764,1.0783,1.0765,1.0765,1.0765,1.0765,1.0765,0,1.0282,1.031,1.0337,1.0379,1.0402,1.0427,1.0462,1.048,1.0505,1.0538,1.0565,1.0599,1.0629,1.067,1.0703,1.0713,1.0726,1.072,1.0719,1.0724,1.0753,1.0748,1.0708,1.0708,1.0708,1.0708,1.0708,1.0708,1.0268,1.0291,1.0315,1.0351,1.0379,1.0408,1.0425,1.0451,1.0478,1.0514,1.0539,1.0566,1.0602,1.0638,1.0666,1.0677,1.0687,1.0676,1.0691,1.0717,1.0722,1.0727,1.0723,1.0678,1.0678,1.066,1.066,1.0659]},{"header":{"parameterUnit":"m.s-1","parameterCategory":1,"la1":30.2991,"la2":30.254,"lo1":-89.0895,"lo2":-89.0444,"dy":0.0017,"dx":0.0017,"nx":28,"ny":28,"refTime":"2023-09-10T09:00:00:Z","depth":0,"parameterNumber":3,"parameterNumberName":"V-component_of_WINDS"},"data":[0,0,0,0,0,0,0,0,0,0,0,0,0,0,0,0,0,0,0,0,0,0,0,0,0,0,0,0,0,0,0,0,0,0,0,0,0,0,0,0,0,0,0,0,0,0,0,0,0,0,0,0,0,0,0,0,0,0,0.1125,0.1124,0,0.1112,0.1111,0.1111,0.1068,0.1067,0.1066,0.1065,0.1055,0.1055,0.1056,0,0,0,0,0,0,0,0,0,0,0,0,0,0.1114,0.1114,0.1125,0.1124,0.1124,0.1112,0.1111,0.1111,0.1068,0.1067,0.1065,0.1064,0.1054,0.1055,0.1056,0,0,0,0,0,0,0,0,0,0,0,0,0,0.1112,0.1114,0.1125,0.1101,0.1099,0.1112,0.1111,0.1111,0.1068,0.1067,0.1065,0.1064,0.1054,0.1055,0.1056,0.1092,0,0,0.1059,0.1059,0,0,0,0,0,0,0,0,0.1112,0.1112,0.1105,0.1103,0.11,0.109,0.1104,0.1105,0.1068,0.108,0.1065,0.1063,0.1068,0.1067,0.1068,0.1091,0.1091,0.1059,0.106,0.106,0.106,0,0,0,0,0,0,0,0.1112,0.1112,0.112,0.1105,0.1102,0.1092,0.109,0.1104,0.1082,0.1079,0.1076,0.1074,0.1066,0.1067,0.1068,0.1091,0.1059,0.106,0.106,0.1061,0.1142,0.1143,0,0,0,0,0,0,0.1115,0.1113,0.112,0.1119,0.1102,0.1093,0.1091,0.1095,0.1082,0.1079,0.1076,0.1072,0.1067,0.1067,0.1067,0.1108,0.106,0.1061,0.1061,0.114,0.1142,0.1144,0,0,0,0,0,0,0.1115,0.1116,0.112,0.1115,0.1115,0.1095,0.1099,0.1095,0.1096,0.108,0.1076,0.1081,0.1065,0.1066,0.1086,0.1107,0.1061,0.1062,0.1138,0.1141,0.1143,0.119,0,0,0,0,0,0,0.1115,0.1116,0.1129,0.1116,0.1115,0.1139,0.1101,0.1096,0.1098,0.1093,0.1084,0.1081,0.1064,0.1084,0.1087,0.1108,0.1063,0.1136,0.1139,0.1142,0.1187,0.1194,0.12,0,0,0,0,0,0.1115,0.1144,0.113,0.1131,0.1131,0.114,0.114,0.112,0.11,0.1113,0.1102,0.1081,0.1104,0.1087,0.1089,0.1111,0.1135,0.1138,0.1142,0.1184,0.1192,0.12,0,0,0,0,0,0,0.1162,0.1142,0.1126,0.1152,0.1148,0.1132,0.1148,0.113,0.1132,0.1128,0.1104,0.1102,0.1125,0.112,0.1101,0.1144,0.1116,0.112,0.1147,0.1155,0.1162,0.1163,0.1064,0,0,0,0,0,0.1175,0.1183,0.1165,0.119,0.1188,0.1169,0.1172,0.1157,0.1152,0.115,0.1141,0.1138,0.1144,0.1149,0.1154,0.1185,0.1183,0.1201,0.1208,0.1213,0.1218,0.1233,0.1241,0.1155,0.1155,0.1155,0,0,0.1203,0.1193,0.12,0.1199,0.1194,0.1204,0.1168,0.118,0.1187,0.1152,0.117,0.1163,0.1158,0.1184,0.1194,0.118,0.1241,0.1218,0.1222,0.1224,0.1238,0.1246,0.1253,0.1158,0.1157,0.1157,0,0,0.1259,0.1252,0.1271,0.1266,0.1259,0.1245,0.125,0.1237,0.1231,0.1248,0.1222,0.1231,0.1243,0.124,0.124,0.1294,0.1274,0.1296,0.1331,0.1347,0.1354,0.136,0.1379,0.1386,0.13,0.13,0.13,0,0.1294,0.1307,0.1283,0.1296,0.1297,0.1265,0.1284,0.1281,0.1277,0.1278,0.1261,0.1275,0.127,0.1294,0.1307,0.1308,0.1313,0.1297,0.1355,0.136,0.1366,0.1384,0.1391,0.1303,0.1302,0.1302,0.1302,0,0.1351,0.1361,0.1377,0.1372,0.1374,0.1391,0.137,0.1375,0.136,0.1348,0.1366,0.1358,0.1361,0.1365,0.1351,0.1387,0.1379,0.1359,0.133,0.1377,0.1394,0.14,0.1307,0.1306,0.1305,0.1304,0,0,0.1438,0.1418,0.1424,0.1421,0.141,0.1417,0.1432,0.1434,0.1439,0.1437,0.1449,0.1459,0.144,0.1441,0.1425,0.1439,0.1482,0.1417,0.1417,0.143,0.1522,0.1538,0.1546,0.1469,0.147,0.1471,0.1523,0,0.149,0.1514,0.1493,0.1521,0.1529,0.1498,0.1511,0.1506,0.1496,0.1502,0.1491,0.1499,0.1473,0.1473,0.1485,0.1474,0.15,0.147,0.1481,0.1482,0.1484,0.1555,0.1572,0.1621,0.1529,0.153,0.1531,0,0.1555,0.1555,0.1583,0.157,0.1572,0.1584,0.1584,0.159,0.1584,0.1575,0.1575,0.1555,0.157,0.1541,0.1561,0.1541,0.1544,0.1539,0.154,0.1541,0.151,0.1559,0.1637,0.1644,0.1541,0.154,0.154,0,0.1616,0.1622,0.164,0.1638,0.1622,0.1632,0.1626,0.1618,0.162,0.162,0.1621,0.1623,0.1624,0.1626,0.1608,0.1589,0.1631,0.16,0.1625,0.1625,0.1636,0.1635,0.1716,0.1637,0.1636,0.1636,0.1636,0,0.1677,0.1696,0.1666,0.1677,0.1698,0.1673,0.1694,0.1685,0.1678,0.1688,0.1661,0.1671,0.1646,0.1653,0.1638,0.1657,0.1658,0.1652,0.1648,0.1655,0.1656,0.1657,0.1654,0.1638,0.1638,0.1637,0.1637,0,0.1749,0.1729,0.1746,0.173,0.1726,0.1742,0.1728,0.1738,0.1725,0.1737,0.1739,0.1719,0.1726,0.1708,0.1712,0.1703,0.173,0.172,0.1732,0.1729,0.1755,0.1753,0.184,0.185,0.1764,0.1764,0.1765,0,0.179,0.1803,0.1788,0.1791,0.1786,0.1793,0.1795,0.1771,0.1774,0.1767,0.1778,0.1783,0.1785,0.1797,0.1784,0.1787,0.1778,0.1808,0.1779,0.1785,0.1779,0.1779,0.178,0.1815,0.1816,0.1817,0.1817,0,0.1864,0.1854,0.1857,0.1856,0.1859,0.1857,0.1854,0.1859,0.1834,0.1839,0.1845,0.1846,0.185,0.1855,0.1855,0.185,0.183,0.1827,0.1832,0.184,0.1846,0.1844,0.1749,0.1825,0.1824,0.1824,0.1823,0.1823,0.1922,0.1933,0.1923,0.1927,0.1922,0.192,0.1928,0.1916,0.192,0.1921,0.1906,0.1915,0.1909,0.1906,0.1903,0.191,0.1897,0.1905,0.1907,0.191,0.1915,0.1844,0.191,0.191,0.191,0.191,0.1909,0,0.1996,0.1988,0.1992,0.1988,0.1991,0.197,0.1966,0.197,0.1978,0.1973,0.1975,0.1982,0.1987,0.1973,0.1976,0.1984,0.1975,0.1986,0.1986,0.1985,0.1926,0.1921,0.1993,0.1993,0.1993,0.1993,0.1993,0.1993,0.2035,0.2051,0.204,0.2054,0.2046,0.2054,0.2053,0.2051,0.2046,0.2055,0.2058,0.2049,0.2041,0.2042,0.2046,0.2042,0.2044,0.2058,0.2051,0.1997,0.1989,0.1981,0.1976,0.2059,0.2059,0.2109,0.211,0.211]}]]